Probability
0 0 0 0 0 0 0 0 0 0 0 0 0 0 0 0 0 0 0 0 6 26 26 26 26 48 65 58 61 65 81 74 68 58 29 19 3 3 0 0 0 0 0 0
0 0 0 0 0 0 0 0 0 0 0 0 0 0 0 0 0 0 0 0 0 10 13 13 23 19 42 61 61 68 74 58 55 39 19 6 0 0 0 0 0 0 0 0
0 0 0 0 0 0 0 0 0 0 0 0 0 0 0 0 0 0 0 0 0 0 3 6 13 13 29 45 52 48 52 42 29 26 3 0 0 0 0 0 0 0 0 0
0 0 0 0 0 0 0 0 0 0 0 0 0 0 0 0 0 0 0 0 0 0 3 10 6 10 16 35 42 32 29 26 23 6 0 0 0 0 0 0 0 0 0 0
0 0 0 0 0 0 0 0 0 0 0 0 0 0 0 0 0 0 3 0 3 0 0 10 13 13 19 29 26 23 10 10 10 0 0 0 0 0 0 0 0 0 0 0
0 0 0 0 0 0 0 0 0 0 0 0 0 0 0 0 0 3 3 26 32 32 26 26 29 39 35 26 23 16 6 3 0 0 0 0 0 0 0 0 0 0 0 0
0 0 0 0 0 0 0 0 0 0 0 0 0 0 0 6 32 35 45 45 42 42 39 48 48 42 32 16 13 6 3 0 0 0 0 0 0 0 0 0 0 0 0 0
0 0 0 0 0 0 0 0 0 0 0 0 0 0 0 32 58 74 74 65 55 45 42 23 23 13 10 6 3 3 3 0 0 0 0 0 0 0 0 0 0 0 0 0
0 0 0 0 0 0 0 0 0 0 0 0 0 0 0 16 52 74 68 48 32 23 10 13 6 3 3 3 3 3 0 0 0 0 0 0 0 0 0 0 0 0 0 0
0 0 0 0 0 0 0 0 0 0 0 0 0 0 0 0 29 55 55 29 13 13 3 3 3 3 0 0 0 0 0 0 0 0 0 0 0 0 0 0 0 0 0 0
0 0 0 0 0 0 0 0 0 0 0 0 0 0 0 3 29 42 26 16 3 3 3 0 0 0 0 0 0 0 0 0 0 0 0 0 0 0 0 0 0 0 0 0
0 0 0 0 0 0 0 0 0 0 0 0 0 0 0 26 42 39 19 0 0 0 0 0 0 0 0 0 0 0 0 0 0 0 0 0 0 0 0 0 0 0 0 0
0 0 0 0 0 0 0 0 0 0 0 0 0 0 16 42 52 19 6 0 0 0 0 0 0 0 0 0 0 0 0 0 0 0 0 0 0 0 0 0 0 0 0 0
0 0 0 0 0 0 0 0 0 0 0 0 0 0 19 32 19 3 0 0 0 0 0 0 0 0 0 0 0 0 0 0 0 0 0 0 0 0 0 0 0 0 0 0
0 0 0 0 0 0 0 0 0 0 0 0 0 0 3 10 10 3 0 0 0 0 0 0 0 0 0 0 0 0 0 0 0 0 0 0 0 0 0 0 0 0 0 0
0 0 0 0 0 0 0 0 0 0 0 0 0 0 0 6 3 0 0 0 0 0 0 0 0 0 0 0 0 0 0 0 0 0 0 0 0 0 0 0 0 0 0 0
0 0 0 0 0 0 0 0 0 0 0 0 0 0 3 6 3 0 0 0 0 0 0 0 0 0 0 0 0 0 0 0 0 0 0 0 0 0 0 0 0 0 0 0
0 0 0 0 0 0 0 0 0 0 0 0 3 3 0 0 0 0 0 0 0 0 0 0 0 0 0 0 0 0 0 0 0 0 0 0 0 0 0 0 0 0 0 0
0 0 0 0 0 0 0 0 0 0 0 0 0 0 0 0 0 0 0 0 0 0 0 0 0 0 0 0 0 0 0 0 0 0 0 0 0 0 0 0 0 0 0 0
0 0 0 0 0 0 0 0 0 0 0 0 0 0 0 0 0 0 0 0 0 0 0 0 0 0 0 0 0 0 0 0 0 0 0 0 0 0 0 0 0 0 0 0
0 0 0 0 0 0 0 0 0 0 0 0 0 0 0 0 0 0 0 0 0 0 0 0 0 0 0 0 0 0 0 0 0 0 0 0 0 0 0 0 0 0 0 0
0 0 0 0 0 0 0 0 0 0 0 0 0 0 0 0 0 0 0 0 0 0 0 0 0 0 0 0 0 0 0 0 0 0 0 0 0 0 0 0 0 0 0 0
0 0 0 0 0 0 0 0 0 0 0 0 0 0 0 0 0 0 0 0 0 0 0 0 0 0 0 0 0 0 0 0 0 0 0 0 0 0 0 0 0 0 0 0
0 0 0 0 0 0 0 0 0 0 0 0 0 0 0 0 0 0 0 0 0 0 0 0 0 0 0 0 0 0 0 0 0 0 0 0 0 0 0 0 0 0 0 0
0 0 0 0 0 0 0 0 0 0 0 0 0 0 0 0 0 0 0 0 0 0 0 0 0 0 0 0 0 0 0 0 0 0 0 0 0 0 0 0 0 0 0 0
0 0 0 0 0 0 0 0 0 0 0 0 0 0 0 0 0 0 0 0 0 0 0 0 0 0 0 0 0 0 0 0 0 0 0 0 0 0 0 0 0 0 0 0
Height
5801 5806 5811 5816 5821 5825 5829 5832 5835 5839 5841 5842 5844 5847 5851 5852 5852 5854 5855 5856 5857 5859 5861 5862 5863 5863 5863 5863 5862 5861 5859 5856 5854 5851 5848 5845 5841 5837 5833 5830 5827 5825 5825 5825
5796 5801 5806 5809 5813 5817 5821 5825 5830 5835 5837 5837 5838 5840 5845 5847 5848 5849 5850 5851 5851 5853 5855 5856 5857 5857 5858 5858 5857 5855 5854 5851 5848 5845 5842 5837 5833 5830 5826 5822 5820 5818 5817 5817
5790 5796 5799 5803 5807 5810 5814 5819 5824 5828 5829 5830 5831 5834 5838 5842 5843 5844 5845 5844 5845 5846 5848 5850 5851 5851 5852 5851 5851 5850 5848 5845 5843 5839 5835 5830 5825 5822 5819 5815 5813 5811 5810 5810
5783 5789 5793 5796 5800 5804 5809 5813 5816 5818 5821 5822 5824 5825 5832 5835 5837 5838 5839 5838 5839 5840 5841 5843 5844 5845 5845 5845 5844 5843 5841 5839 5836 5832 5827 5821 5817 5814 5812 5809 5807 5806 5805 5804
5779 5783 5787 5791 5795 5798 5803 5805 5807 5809 5812 5815 5817 5819 5825 5828 5830 5832 5832 5832 5832 5833 5835 5836 5837 5838 5838 5837 5836 5835 5834 5831 5827 5823 5819 5814 5810 5806 5804 5802 5801 5801 5799 5796
5772 5777 5780 5784 5788 5791 5794 5797 5799 5802 5805 5810 5813 5815 5818 5821 5823 5825 5825 5825 5826 5827 5828 5829 5830 5830 5830 5830 5829 5827 5825 5823 5819 5814 5809 5804 5800 5798 5797 5796 5795 5795 5793 5790
5767 5771 5774 5778 5781 5784 5788 5791 5794 5797 5800 5804 5808 5809 5812 5813 5815 5817 5818 5818 5819 5820 5821 5822 5823 5823 5823 5822 5821 5819 5817 5815 5811 5805 5800 5795 5792 5791 5791 5790 5788 5787 5786 5784
5762 5767 5770 5773 5776 5780 5783 5787 5791 5793 5796 5799 5802 5803 5806 5807 5808 5809 5810 5811 5812 5813 5814 5815 5815 5815 5815 5814 5813 5811 5809 5807 5803 5798 5793 5790 5789 5786 5784 5783 5781 5780 5779 5776
5757 5762 5765 5769 5773 5777 5779 5783 5786 5788 5790 5793 5795 5797 5799 5801 5802 5803 5805 5806 5807 5807 5808 5808 5808 5808 5808 5807 5806 5804 5802 5799 5796 5792 5789 5785 5782 5780 5778 5776 5774 5772 5769 5767
5752 5757 5761 5764 5769 5772 5776 5778 5781 5782 5785 5787 5790 5792 5794 5795 5796 5798 5799 5800 5801 5802 5802 5802 5802 5801 5801 5799 5798 5796 5793 5791 5788 5785 5781 5778 5775 5773 5770 5768 5765 5763 5760 5756
5750 5753 5757 5760 5763 5767 5770 5773 5775 5777 5780 5782 5785 5789 5789 5790 5791 5792 5793 5794 5795 5796 5796 5796 5795 5794 5793 5791 5789 5787 5784 5782 5779 5776 5773 5770 5767 5764 5761 5758 5755 5752 5749 5745
5748 5751 5753 5756 5758 5761 5764 5766 5769 5773 5775 5777 5780 5785 5783 5784 5785 5786 5787 5788 5788 5788 5788 5788 5787 5786 5785 5783 5781 5778 5775 5772 5769 5766 5763 5760 5757 5754 5751 5748 5744 5741 5737 5733
5745 5747 5750 5753 5756 5757 5758 5760 5763 5766 5769 5771 5774 5778 5777 5778 5779 5780 5780 5780 5780 5780 5780 5779 5778 5777 5776 5774 5772 5769 5767 5763 5760 5757 5753 5750 5746 5743 5740 5736 5732 5728 5724 5719
5740 5741 5745 5748 5749 5751 5753 5755 5758 5760 5762 5764 5767 5768 5769 5770 5771 5771 5771 5771 5771 5771 5770 5770 5769 5767 5766 5764 5762 5759 5756 5753 5750 5746 5742 5739 5735 5731 5727 5723 5719 5714 5710 5705
5733 5734 5737 5739 5741 5743 5745 5748 5750 5752 5754 5756 5758 5759 5760 5760 5761 5761 5761 5761 5761 5761 5760 5759 5758 5757 5755 5753 5751 5748 5745 5741 5738 5734 5730 5726 5722 5718 5714 5709 5705 5700 5695 5690
5725 5727 5729 5731 5733 5735 5737 5740 5742 5744 5745 5747 5749 5750 5751 5751 5751 5750 5750 5750 5750 5750 5749 5748 5747 5746 5744 5741 5738 5735 5732 5729 5725 5721 5718 5713 5709 5705 5700 5696 5691 5686 5681 5676
5717 5719 5721 5722 5723 5725 5729 5732 5733 5735 5736 5738 5739 5741 5741 5741 5741 5741 5740 5739 5739 5738 5738 5737 5736 5734 5731 5728 5725 5722 5719 5716 5712 5708 5705 5700 5696 5692 5687 5683 5678 5673 5668 5663
5710 5711 5713 5714 5716 5717 5721 5722 5723 5725 5727 5729 5730 5731 5731 5731 5731 5730 5729 5729 5728 5728 5727 5725 5723 5721 5718 5716 5713 5709 5706 5703 5699 5695 5691 5687 5683 5678 5674 5669 5664 5660 5655 5650
5703 5704 5705 5707 5708 5709 5712 5713 5715 5716 5718 5719 5720 5721 5721 5721 5721 5721 5720 5719 5718 5717 5715 5714 5711 5709 5706 5703 5700 5697 5693 5689 5686 5682 5678 5674 5669 5665 5660 5656 5651 5647 5642 5638
5697 5698 5699 5699 5700 5702 5705 5706 5706 5709 5710 5711 5711 5711 5712 5712 5713 5712 5711 5710 5708 5706 5704 5702 5700 5697 5694 5691 5688 5684 5680 5676 5673 5669 5665 5660 5656 5652 5648 5643 5639 5635 5630 5626
5692 5692 5693 5693 5694 5695 5697 5697 5699 5702 5703 5702 5702 5702 5702 5703 5703 5702 5701 5699 5698 5696 5694 5691 5689 5686 5683 5679 5676 5672 5668 5664 5660 5656 5652 5648 5644 5639 5635 5631 5627 5623 5619 5614
5688 5688 5688 5688 5689 5691 5690 5691 5693 5693 5694 5694 5694 5694 5694 5694 5693 5692 5691 5690 5688 5686 5684 5681 5678 5675 5672 5668 5664 5660 5656 5652 5648 5644 5640 5636 5632 5628 5623 5619 5615 5611 5607 5603
5684 5685 5684 5685 5686 5685 5685 5685 5686 5686 5687 5687 5687 5686 5686 5686 5685 5684 5682 5681 5679 5677 5674 5671 5668 5665 5661 5657 5654 5650 5646 5642 5638 5634 5630 5625 5621 5617 5613 5608 5604 5600 5596 5592
5681 5681 5681 5681 5681 5681 5681 5681 5681 5681 5680 5680 5680 5679 5678 5678 5677 5675 5674 5672 5670 5668 5665 5662 5659 5655 5651 5648 5644 5641 5637 5633 5628 5624 5620 5615 5611 5607 5602 5598 5594 5590 5586 5582
5678 5677 5677 5677 5677 5677 5677 5676 5676 5675 5674 5674 5673 5672 5671 5670 5669 5667 5666 5664 5662 5659 5656 5653 5650 5647 5643 5640 5636 5633 5628 5624 5620 5615 5611 5606 5602 5597 5593 5589 5585 5581 5578 5574
5675 5674 5674 5674 5674 5673 5672 5671 5670 5669 5668 5667 5666 5665 5664 5663 5662 5660 5659 5657 5655 5653 5650 5647 5644 5641 5637 5634 5630 5626 5621 5617 5612 5607 5603 5598 5594 5589 5585 5581 5578 5574 5571 5568
Wind_Speed
35 35 34 33 34 35 36 37 38 38 40 40 39 35 31 32 32 33 33 33 32 30 27 25 23 23 23 23 25 27 29 32 34 35 36 37 38 39 38 36 34 35 35 34
34 33 32 33 35 36 37 38 37 38 41 44 44 41 36 34 36 36 35 35 33 32 30 28 27 26 25 25 26 28 30 33 35 37 39 40 41 40 39 37 35 33 33 34
33 31 31 33 35 36 37 37 36 37 41 44 45 45 41 38 38 37 36 36 35 33 31 30 30 29 28 27 28 31 33 35 37 39 41 42 42 41 39 33 31 30 31 32
33 32 33 34 34 35 34 32 34 37 39 42 44 45 42 40 40 39 38 37 37 35 33 32 32 32 31 31 33 35 37 39 41 42 43 43 43 40 34 31 29 27 27 28
32 31 32 33 33 33 30 30 33 36 38 40 41 43 40 39 39 38 39 39 39 37 35 34 34 34 34 36 38 39 41 43 44 44 44 45 42 38 33 30 29 27 28 29
32 31 33 33 32 32 31 33 35 36 37 38 36 39 40 37 37 37 38 39 38 37 36 34 34 36 37 39 41 43 44 44 45 46 46 44 39 37 35 33 31 30 30 31
30 31 33 34 34 34 34 35 35 36 36 36 32 36 38 36 36 37 38 38 38 37 37 37 37 38 39 40 41 42 42 43 43 43 43 42 38 38 37 35 32 31 32 34
28 29 31 32 33 33 33 34 34 35 34 32 31 34 34 34 34 34 34 34 34 34 34 35 36 36 37 38 38 38 39 40 41 42 42 41 41 39 38 35 33 34 36 38
25 26 28 29 29 30 31 32 31 33 32 31 31 32 31 30 30 30 31 31 31 32 32 32 32 32 33 33 34 35 36 39 41 42 43 43 41 40 40 37 37 39 40 42
23 23 25 27 30 31 32 32 32 32 31 30 31 29 28 28 29 29 30 30 31 31 31 31 31 31 31 33 34 36 38 40 42 44 45 44 42 42 41 40 41 42 44 46
20 21 23 28 32 34 34 34 34 33 31 29 29 28 27 28 28 29 30 31 32 31 31 31 31 32 33 35 37 40 42 44 45 46 46 46 45 45 45 44 45 46 48 50
19 20 23 28 32 34 35 35 34 33 32 30 29 29 29 28 29 30 31 31 31 32 32 32 32 34 36 38 40 43 45 46 48 48 48 48 48 47 47 47 48 49 51 53
21 21 23 28 32 34 35 35 35 34 33 32 31 32 32 31 32 33 33 33 33 33 33 33 35 37 39 41 43 45 47 48 49 49 49 50 49 49 50 50 51 52 53 55
25 26 25 27 31 33 34 35 36 35 35 35 35 35 36 37 37 37 37 37 36 36 36 36 38 39 41 44 45 47 49 50 51 51 52 52 52 52 52 52 53 54 55 56
29 29 30 30 32 33 33 34 36 37 37 37 37 38 40 41 42 42 42 41 40 39 39 40 41 42 44 46 48 50 51 53 53 53 53 53 53 52 52 53 54 55 56 57
33 33 34 34 35 37 38 38 38 39 40 40 40 41 42 43 43 43 42 41 41 40 40 42 44 46 48 50 51 53 54 55 55 55 53 52 51 51 52 52 53 54 55 55
34 35 36 37 38 38 40 40 40 41 40 40 40 41 43 43 42 41 39 40 40 41 42 45 47 49 51 52 53 54 54 54 54 52 51 51 50 50 50 51 52 52 52 53
30 33 35 36 38 39 38 37 36 36 38 39 39 38 39 39 39 39 39 39 40 42 44 46 47 49 50 52 53 53 53 53 52 50 50 49 49 49 49 49 49 49 50 49
25 28 30 31 33 35 35 34 34 34 34 34 34 35 36 37 38 39 39 39 40 41 43 45 47 49 50 51 51 51 51 50 49 48 48 47 47 47 46 46 47 47 47 47
21 23 25 26 27 28 29 29 30 32 32 32 33 34 34 36 37 38 39 40 41 42 44 45 46 48 49 49 49 49 48 47 47 46 46 45 45 44 44 45 45 45 46 46
18 19 20 21 22 24 24 24 25 25 26 28 30 32 33 35 36 37 38 40 41 42 43 44 45 46 46 46 46 46 45 45 45 44 43 42 42 42 42 43 43 44 44 45
16 16 16 16 17 18 19 20 22 22 23 25 26 28 29 31 32 34 35 36 38 39 40 41 41 42 42 43 43 42 42 41 41 40 40 40 40 40 41 41 42 42 43 43
14 14 14 14 14 14 15 17 18 20 21 22 24 26 27 29 30 31 32 33 35 36 37 38 39 40 40 40 39 38 37 36 36 36 37 38 38 39 39 39 40 40 40 39
13 13 13 13 13 14 14 16 18 19 21 22 24 25 27 28 29 30 31 32 33 35 36 36 36 36 35 34 32 32 32 32 33 34 35 35 36 37 37 38 37 37 35 33
13 12 12 12 13 13 14 16 18 19 20 22 24 25 26 27 28 29 30 30 30 30 30 29 29 28 27 26 26 27 29 30 30 31 33 34 35 35 35 34 32 31 29 27
13 13 13 13 14 15 16 17 18 19 20 21 22 23 23 23 23 23 23 22 22 22 22 21 20 21 21 23 24 26 27 28 30 31 31 31 31 31 30 29 27 26 24 23
Wind_Direction
233 232 232 231 232 232 232 232 232 231 233 238 244 247 246 248 254 259 261 263 265 267 267 268 272 278 284 292 299 303 307 309 308 306 305 300 296 292 286 278 273 270 268 268
233 233 231 229 229 231 233 234 233 232 233 237 243 248 249 250 254 257 261 263 264 266 265 266 270 274 280 287 293 297 300 301 301 300 299 298 294 291 289 285 277 274 270 268
233 231 230 231 232 232 233 235 234 233 233 238 242 246 249 251 252 255 260 263 264 265 264 264 267 272 277 283 288 291 294 294 295 294 293 291 289 289 291 293 295 284 278 272
231 228 228 230 232 234 235 236 236 235 235 237 242 246 247 250 250 253 256 260 262 263 263 263 266 270 276 280 283 286 290 291 290 290 288 286 288 289 297 301 302 299 291 283
230 229 228 229 231 234 234 233 234 235 237 238 242 248 249 249 250 252 254 258 261 262 263 264 267 271 275 279 282 285 287 287 287 287 284 283 285 291 302 311 310 304 297 292
226 226 226 227 228 230 229 230 233 235 239 241 242 248 252 251 252 252 254 258 261 263 265 266 269 272 276 279 281 281 283 284 284 284 285 285 289 302 310 312 311 306 302 298
226 226 226 226 226 227 226 227 231 235 239 241 240 245 251 253 253 254 256 257 260 262 264 266 268 271 273 275 276 278 280 282 284 287 291 297 304 311 312 307 306 304 301 299
227 226 227 227 228 228 224 227 231 235 238 239 238 243 248 251 252 253 255 258 260 262 265 267 268 269 271 273 275 276 279 282 288 293 299 303 308 311 311 306 303 302 300 299
225 224 225 226 223 221 220 225 230 237 239 239 239 243 245 247 249 251 254 257 259 262 265 267 268 270 272 274 277 280 283 285 290 295 299 303 306 308 308 305 304 303 301 299
223 221 217 215 212 214 219 222 226 234 238 238 239 242 245 247 249 252 255 257 260 263 265 268 271 273 277 280 284 288 290 292 294 297 300 302 304 306 306 305 304 303 301 300
227 223 209 208 208 212 218 223 229 235 239 241 243 245 248 252 255 257 258 260 263 266 269 272 275 279 283 286 289 292 294 296 297 298 299 300 302 303 303 303 302 301 300 298
236 231 214 210 212 217 224 229 232 237 240 243 247 250 251 257 260 261 262 263 265 268 271 275 279 283 286 288 291 293 295 297 296 296 297 297 299 300 300 300 300 299 297 297
244 240 230 220 221 223 228 233 236 239 243 245 248 252 255 259 261 262 263 264 265 267 271 275 281 285 287 289 291 293 295 296 295 295 296 297 298 298 299 299 298 297 296 296
250 248 242 236 232 234 237 240 242 244 247 249 250 253 255 258 259 260 261 262 264 266 270 276 283 287 289 290 291 293 294 294 294 295 296 297 297 297 297 298 297 296 296 296
255 254 250 246 242 241 243 245 246 246 248 250 252 254 256 257 258 260 260 261 262 266 271 278 284 288 290 290 291 292 293 294 295 296 298 299 298 298 297 297 297 296 296 295
255 255 254 251 248 244 244 245 247 247 249 250 253 256 258 258 259 260 261 262 266 270 275 281 285 288 289 290 292 293 294 296 297 298 299 298 298 297 296 295 295 295 295 295
256 256 257 258 257 256 250 247 247 249 251 253 255 259 261 263 265 266 269 271 275 277 281 283 286 288 290 292 293 294 295 297 298 298 298 297 296 295 295 294 294 295 295 295
260 260 261 263 264 266 265 263 262 261 260 261 264 267 270 272 274 276 279 280 280 282 284 286 287 289 290 292 293 294 295 296 297 297 296 296 295 295 294 294 294 294 294 294
266 265 265 266 267 269 270 270 271 271 272 273 273 274 273 273 275 277 279 281 281 282 283 285 287 289 290 292 293 294 295 295 295 295 295 295 294 294 294 294 293 293 293 293
274 270 269 269 270 271 271 271 271 272 271 270 270 271 271 273 274 275 277 278 279 281 284 287 288 289 291 292 293 294 294 295 295 294 294 294 294 293 293 293 293 293 293 294
281 277 274 273 272 271 272 272 271 270 269 267 267 267 269 270 273 275 277 278 281 283 286 288 289 290 292 293 293 293 293 293 293 293 293 293 292 292 292 292 293 293 294 295
285 281 278 276 273 271 270 268 267 268 267 266 266 268 269 272 274 276 278 280 282 285 287 288 290 291 292 292 292 292 292 292 293 293 293 292 292 293 293 293 294 294 295 296
286 283 280 275 273 269 265 264 264 266 267 269 269 271 272 274 276 278 280 282 284 286 288 289 290 291 292 293 293 293 293 293 293 293 293 293 294 294 295 295 296 297 298 299
289 284 279 276 274 272 270 269 270 270 272 274 275 275 277 279 280 282 284 285 286 288 289 290 291 291 292 293 293 293 294 294 295 295 296 296 296 297 298 299 300 301 301 301
293 288 283 278 275 274 275 275 275 275 276 277 278 279 280 281 283 285 286 287 288 290 291 293 294 295 296 296 297 298 298 299 299 300 300 300 301 301 302 303 303 304 304 304
295 292 288 285 283 284 284 282 281 281 281 281 281 281 281 283 285 287 288 289 293 296 298 300 302 303 303 303 303 304 304 304 305 305 305 305 305 305 305 306 306 307 307 307